| time (UTC) | temp F | wind direction | speed MPH | gust MPH | rain 1hr in | rain 24hr in | rain mn in | humidity % | barometer mb |
| 20260507234712 | 52 | 226 | 2.0 | 5.0 | 0.00 | 0.00 | 0.00 | 63 | |
| 20260507234212 | 52 | 203 | 4.0 | 7.0 | 0.00 | 0.00 | 0.00 | 63 | |
| 20260507233712 | 52 | 195 | 3.0 | 6.0 | 0.00 | 0.00 | 0.00 | 63 | |
| 20260507233212 | 53 | 187 | 4.0 | 7.0 | 0.00 | 0.00 | 0.00 | 63 | |
| 20260507232711 | 52 | 203 | 3.0 | 7.0 | 0.00 | 0.00 | 0.00 | 63 | |
| 20260507232211 | 52 | 200 | 4.0 | 8.0 | 0.00 | 0.00 | 0.00 | 63 | |
| 20260507231711 | 52 | 214 | 3.0 | 5.0 | 0.00 | 0.00 | 0.00 | 64 | |
| 20260507231211 | 52 | 201 | 3.0 | 6.0 | 0.00 | 0.00 | 0.00 | 64 | |
| 20260507230209 | 52 | 217 | 3.0 | 5.0 | 0.00 | 0.00 | 0.00 | 62 | |
| 20260507225209 | 52 | 243 | 2.0 | 5.0 | 0.00 | 0.00 | 0.00 | 61 | |
| 20260507224707 | 53 | 236 | 2.0 | 8.0 | 0.00 | 0.00 | 0.00 | 61 | |
| 20260507224207 | 53 | 239 | 2.0 | 7.0 | 0.00 | 0.00 | 0.00 | 60 | |
| 20260507223707 | 53 | 224 | 1.0 | 6.0 | 0.00 | 0.00 | 0.00 | 60 | |
| 20260507223206 | 53 | 252 | 2.0 | 7.0 | 0.00 | 0.00 | 0.00 | 60 | |
| 20260507222706 | 53 | 271 | 1.0 | 5.0 | 0.00 | 0.00 | 0.00 | 59 | |
| 20260507222206 | 53 | 256 | 2.0 | 6.0 | 0.00 | 0.00 | 0.00 | 59 | |
| 20260507221704 | 53 | 215 | 2.0 | 7.0 | 0.00 | 0.00 | 0.00 | 59 | |
| 20260507221204 | 53 | 266 | 2.0 | 7.0 | 0.00 | 0.00 | 0.00 | 59 | |
| 20260507220704 | 53 | 256 | 2.0 | 5.0 | 0.00 | 0.00 | 0.00 | 59 | |
| 20260507220203 | 53 | 271 | 2.0 | 7.0 | 0.00 | 0.00 | 0.00 | 59 | |
| 20260507215703 | 53 | 253 | 2.0 | 7.0 | 0.00 | 0.00 | 0.00 | 59 | |
| 20260507214702 | 54 | 236 | 2.0 | 8.0 | 0.00 | 0.00 | 0.00 | 59 | |
| 20260507214202 | 54 | 222 | 2.0 | 5.0 | 0.00 | 0.00 | 0.00 | 59 | |
| 20260507213702 | 54 | 204 | 3.0 | 8.0 | 0.00 | 0.00 | 0.00 | 59 | |
| 20260507213202 | 54 | 221 | 3.0 | 8.0 | 0.00 | 0.00 | 0.00 | 59 | |
| 20260507212701 | 54 | 194 | 3.0 | 6.0 | 0.00 | 0.00 | 0.00 | 59 | |
| 20260507212201 | 55 | 242 | 2.0 | 6.0 | 0.00 | 0.00 | 0.00 | 59 | |
| 20260507211701 | 55 | 231 | 2.0 | 6.0 | 0.00 | 0.00 | 0.00 | 59 | |
| 20260507211200 | 55 | 249 | 2.0 | 5.0 | 0.00 | 0.00 | 0.00 | 58 | |
| 20260507210700 | 56 | 195 | 1.0 | 6.0 | 0.00 | 0.00 | 0.00 | 57 | |
| 20260507210200 | 56 | 224 | 2.0 | 5.0 | 0.00 | 0.00 | 0.00 | 57 | |
| 20260507205659 | 56 | 214 | 1.0 | 4.0 | 0.00 | 0.00 | 0.00 | 56 | |
| 20260507205159 | 56 | 212 | 1.0 | 4.0 | 0.00 | 0.00 | 0.00 | 56 | |
| 20260507204659 | 56 | 218 | 0.0 | 2.0 | 0.00 | 0.00 | 0.00 | 55 | |
| 20260507203658 | 56 | 300 | 0.0 | 0.0 | 0.00 | 0.00 | 0.00 | 55 | |
| 20260507203157 | 56 | 0 | 0.0 | 0.0 | 0.00 | 0.00 | 0.00 | 55 | |
| 20260507202657 | 57 | 0 | 0.0 | 0.0 | 0.00 | 0.00 | 0.00 | 55 | |
| 20260507202157 | 56 | 0 | 0.0 | 0.0 | 0.00 | 0.00 | 0.00 | 55 | |
| 20260507201656 | 58 | 0 | 0.0 | 0.0 | 0.00 | 0.00 | 0.00 | 56 | |
| 20260507201156 | 58 | 0 | 0.0 | 0.0 | 0.00 | 0.00 | 0.00 | 55 | |
| 20260507200656 | 58 | 0 | 0.0 | 0.0 | 0.00 | 0.00 | 0.00 | 55 | |
| 20260507200155 | 57 | 0 | 0.0 | 0.0 | 0.00 | 0.00 | 0.00 | 55 | |
| 20260507195655 | 58 | 0 | 0.0 | 0.0 | 0.00 | 0.00 | 0.00 | 54 | |
| 20260507195154 | 57 | 0 | 0.0 | 0.0 | 0.00 | 0.00 | 0.00 | 54 | |
| 20260507194653 | 58 | 0 | 0.0 | 0.0 | 0.00 | 0.00 | 0.00 | 53 | |
| 20260507194153 | 58 | 0 | 0.0 | 0.0 | 0.00 | 0.00 | 0.00 | 52 | |
| 20260507193653 | 58 | 0 | 0.0 | 0.0 | 0.00 | 0.00 | 0.00 | 51 | |
| 20260507193152 | 58 | 0 | 0.0 | 0.0 | 0.00 | 0.00 | 0.00 | 51 | |
| 20260507192652 | 58 | 0 | 0.0 | 0.0 | 0.00 | 0.00 | 0.00 | 50 | |
| 20260507191652 | 58 | 0 | 0.0 | 0.0 | 0.00 | 0.00 | 0.00 | 50 | |
| 20260507190650 | 58 | 0 | 0.0 | 0.0 | 0.00 | 0.00 | 0.00 | 49 | |
| 20260507190150 | 59 | 0 | 0.0 | 0.0 | 0.00 | 0.00 | 0.00 | 49 | |
| 20260507185650 | 59 | 277 | 0.0 | 2.0 | 0.00 | 0.00 | 0.00 | 48 | |
| 20260507185150 | 59 | 256 | 1.0 | 2.0 | 0.00 | 0.00 | 0.00 | 48 | |
| 20260507184649 | 59 | 0 | 0.0 | 0.0 | 0.00 | 0.00 | 0.00 | 47 | |
| 20260507184149 | 60 | 290 | 1.0 | 3.0 | 0.00 | 0.00 | 0.00 | 46 | |
| 20260507183649 | 60 | 294 | 1.0 | 4.0 | 0.00 | 0.00 | 0.00 | 45 | |
| 20260507183149 | 60 | 298 | 2.0 | 4.0 | 0.00 | 0.00 | 0.00 | 45 | |
| 20260507182648 | 59 | 274 | 1.0 | 4.0 | 0.00 | 0.00 | 0.00 | 45 | |
| 20260507182148 | 60 | 294 | 1.0 | 3.0 | 0.00 | 0.00 | 0.00 | 45 | |
| 20260507181648 | 59 | 274 | 1.0 | 4.0 | 0.00 | 0.00 | 0.00 | 45 | |
| 20260507181146 | 60 | 304 | 2.0 | 5.0 | 0.00 | 0.00 | 0.00 | 45 | |
| 20260507180648 | 59 | 291 | 1.0 | 5.0 | 0.00 | 0.00 | 0.00 | 45 | |
| 20260507180146 | 59 | 277 | 1.0 | 4.0 | 0.00 | 0.00 | 0.00 | 45 | |
| 20260507175646 | 59 | 290 | 2.0 | 4.0 | 0.00 | 0.00 | 0.00 | 45 | |
| 20260507175145 | 60 | 290 | 1.0 | 4.0 | 0.00 | 0.00 | 0.00 | 45 | |
| 20260507174645 | 60 | 288 | 3.0 | 6.0 | 0.00 | 0.00 | 0.00 | 45 | |
| 20260507174145 | 61 | 300 | 2.0 | 6.0 | 0.00 | 0.00 | 0.00 | 44 | |
| 20260507173644 | 61 | 290 | 1.0 | 6.0 | 0.00 | 0.00 | 0.00 | 45 | |
| 20260507173144 | 61 | 274 | 1.0 | 5.0 | 0.00 | 0.00 | 0.00 | 45 | |
| 20260507172644 | 61 | 271 | 2.0 | 4.0 | 0.00 | 0.00 | 0.00 | 45 | |
| 20260507172144 | 60 | 295 | 2.0 | 4.0 | 0.00 | 0.00 | 0.00 | 45 | |
| 20260507171643 | 62 | 300 | 3.0 | 7.0 | 0.00 | 0.00 | 0.00 | 44 | |
| 20260507171143 | 62 | 271 | 2.0 | 7.0 | 0.00 | 0.00 | 0.00 | 44 | |
| 20260507170643 | 61 | 294 | 2.0 | 4.0 | 0.00 | 0.00 | 0.00 | 44 | |
| 20260507170142 | 61 | 280 | 2.0 | 6.0 | 0.00 | 0.00 | 0.00 | 44 | |
| 20260507165642 | 61 | 287 | 2.0 | 5.0 | 0.00 | 0.00 | 0.00 | 44 | |
| 20260507165142 | 61 | 287 | 3.0 | 7.0 | 0.00 | 0.00 | 0.00 | 44 | |
| 20260507164642 | 62 | 278 | 3.0 | 7.0 | 0.00 | 0.00 | 0.00 | 43 | |
| 20260507164141 | 61 | 284 | 2.0 | 6.0 | 0.00 | 0.00 | 0.00 | 44 | |
| 20260507163641 | 61 | 278 | 3.0 | 7.0 | 0.00 | 0.00 | 0.00 | 45 | |
| 20260507162140 | 61 | 225 | 2.0 | 6.0 | 0.00 | 0.00 | 0.00 | 46 | |
| 20260507161640 | 61 | 290 | 2.0 | 6.0 | 0.00 | 0.00 | 0.00 | 46 | |
| 20260507161140 | 61 | 274 | 3.0 | 6.0 | 0.00 | 0.00 | 0.00 | 46 | |
| 20260507160639 | 61 | 274 | 1.0 | 5.0 | 0.00 | 0.00 | 0.00 | 45 | |
| 20260507160139 | 61 | 283 | 2.0 | 7.0 | 0.00 | 0.00 | 0.00 | 44 | |
| 20260507155639 | 61 | 277 | 3.0 | 7.0 | 0.00 | 0.00 | 0.00 | 45 | |
| 20260507155138 | 61 | 281 | 3.0 | 8.0 | 0.00 | 0.00 | 0.00 | 45 | |
| 20260507154638 | 61 | 288 | 4.0 | 9.0 | 0.00 | 0.00 | 0.00 | 45 | |
| 20260507154138 | 61 | 314 | 2.0 | 6.0 | 0.00 | 0.00 | 0.00 | 44 | |
| 20260507153638 | 61 | 284 | 3.0 | 6.0 | 0.00 | 0.00 | 0.00 | 43 | |
| 20260507153137 | 61 | 285 | 1.0 | 5.0 | 0.00 | 0.00 | 0.00 | 41 | |
| 20260507152137 | 61 | 305 | 2.0 | 6.0 | 0.00 | 0.00 | 0.00 | 40 | |
| 20260507151636 | 61 | 271 | 1.0 | 4.0 | 0.00 | 0.00 | 0.00 | 39 | |
| 20260507151136 | 62 | 309 | 0.0 | 0.0 | 0.00 | 0.00 | 0.00 | 39 | |
| 20260507150636 | 61 | 0 | 0.0 | 0.0 | 0.00 | 0.00 | 0.00 | 39 | |
| 20260507150136 | 63 | 0 | 0.0 | 0.0 | 0.00 | 0.00 | 0.00 | 39 | |
| 20260507145135 | 61 | 194 | 1.0 | 6.0 | 0.00 | 0.00 | 0.00 | 39 | |
| 20260507144635 | 61 | 207 | 1.0 | 7.0 | 0.00 | 0.00 | 0.00 | 39 | |
| 20260507144135 | 60 | 203 | 3.0 | 6.0 | 0.00 | 0.00 | 0.00 | 39 | |
| 20260507143134 | 61 | 217 | 2.0 | 5.0 | 0.00 | 0.00 | 0.00 | 38 | |
| 20260507142634 | 61 | 252 | 2.0 | 7.0 | 0.00 | 0.00 | 0.00 | 38 | |
| 20260507142133 | 62 | 200 | 1.0 | 3.0 | 0.00 | 0.00 | 0.00 | 38 | |
| 20260507141633 | 61 | 248 | 3.0 | 7.0 | 0.00 | 0.00 | 0.00 | 37 | |
| 20260507141133 | 61 | 198 | 2.0 | 5.0 | 0.00 | 0.00 | 0.00 | 38 | |
| 20260507140633 | 61 | 200 | 2.0 | 5.0 | 0.00 | 0.00 | 0.00 | 37 | |
| 20260507140132 | 63 | 226 | 2.0 | 6.0 | 0.00 | 0.00 | 0.00 | 35 | |
| 20260507135633 | 63 | 255 | 2.0 | 8.0 | 0.00 | 0.00 | 0.00 | 35 | |
| 20260507134631 | 64 | 198 | 1.0 | 5.0 | 0.00 | 0.00 | 0.00 | 33 | |
| 20260507133631 | 63 | 190 | 2.0 | 7.0 | 0.00 | 0.00 | 0.00 | 35 | |
| 20260507133131 | 63 | 212 | 1.0 | 4.0 | 0.00 | 0.00 | 0.00 | 35 | |
| 20260507132630 | 63 | 201 | 1.0 | 6.0 | 0.00 | 0.00 | 0.00 | 35 | |
| 20260507132130 | 61 | 205 | 1.0 | 5.0 | 0.00 | 0.00 | 0.00 | 36 | |
| 20260507131630 | 62 | 266 | 3.0 | 6.0 | 0.00 | 0.00 | 0.00 | 36 | |
| 20260507131129 | 61 | 198 | 2.0 | 5.0 | 0.00 | 0.00 | 0.00 | 36 | |
| 20260507130629 | 62 | 253 | 3.0 | 7.0 | 0.00 | 0.00 | 0.00 | 37 | |
| 20260507130129 | 62 | 248 | 1.0 | 5.0 | 0.00 | 0.00 | 0.00 | 37 | |
| 20260507125629 | 62 | 287 | 0.0 | 3.0 | 0.00 | 0.00 | 0.00 | 36 | |
| 20260507125129 | 62 | 233 | 2.0 | 4.0 | 0.00 | 0.00 | 0.00 | 35 | |
| 20260507124628 | 63 | 243 | 0.0 | 3.0 | 0.00 | 0.00 | 0.00 | 34 | |
| 20260507124128 | 63 | 262 | 1.0 | 5.0 | 0.00 | 0.00 | 0.00 | 35 | |
| 20260507123627 | 63 | 226 | 2.0 | 7.0 | 0.00 | 0.00 | 0.00 | 33 | |
| 20260507123127 | 65 | 270 | 2.0 | 6.0 | 0.00 | 0.00 | 0.00 | 31 | |
| 20260507122627 | 65 | 245 | 1.0 | 7.0 | 0.00 | 0.00 | 0.00 | 31 | |
| 20260507122127 | 65 | 278 | 2.0 | 6.0 | 0.00 | 0.00 | 0.00 | 32 | |
| 20260507121626 | 65 | 207 | 4.0 | 8.0 | 0.00 | 0.00 | 0.00 | 35 | |
| 20260507121126 | 65 | 215 | 3.0 | 9.0 | 0.00 | 0.00 | 0.00 | 35 | |
| 20260507120626 | 65 | 224 | 2.0 | 6.0 | 0.00 | 0.00 | 0.00 | 31 | |
| 20260507120125 | 64 | 277 | 2.0 | 5.0 | 0.00 | 0.00 | 0.00 | 34 | |
| 20260507115625 | 64 | 248 | 1.0 | 4.0 | 0.00 | 0.00 | 0.00 | 37 | |
| 20260507115125 | 64 | 215 | 2.0 | 6.0 | 0.00 | 0.00 | 0.00 | 37 | |
| 20260507114625 | 64 | 215 | 2.0 | 7.0 | 0.00 | 0.00 | 0.00 | 35 | |
| 20260507114124 | 65 | 245 | 1.0 | 4.0 | 0.00 | 0.00 | 0.00 | 36 | |
| 20260507113624 | 63 | 266 | 2.0 | 6.0 | 0.00 | 0.00 | 0.00 | 38 | |
| 20260507113124 | 63 | 260 | 2.0 | 6.0 | 0.00 | 0.00 | 0.00 | 37 | |
| 20260507112624 | 62 | 263 | 2.0 | 5.0 | 0.00 | 0.00 | 0.00 | 41 | |
| 20260507112123 | 61 | 25 | 0.0 | 2.0 | 0.00 | 0.00 | 0.00 | 43 | |
| 20260507111623 | 61 | 280 | 1.0 | 4.0 | 0.00 | 0.00 | 0.00 | 45 | |
| 20260507110622 | 60 | 214 | 1.0 | 4.0 | 0.00 | 0.00 | 0.00 | 48 | |
| 20260507110122 | 60 | 0 | 0.0 | 0.0 | 0.00 | 0.00 | 0.00 | 51 | |
| 20260507105621 | 60 | 325 | 1.0 | 5.0 | 0.00 | 0.00 | 0.00 | 50 | |
| 20260507105121 | 60 | 238 | 1.0 | 4.0 | 0.00 | 0.00 | 0.00 | 51 | |
| 20260507104120 | 58 | 300 | 2.0 | 4.0 | 0.00 | 0.00 | 0.00 | 56 | |
| 20260507103620 | 59 | 18 | 0.0 | 1.0 | 0.00 | 0.00 | 0.00 | 60 | |
| 20260507103120 | 58 | 349 | 0.0 | 2.0 | 0.00 | 0.00 | 0.00 | 61 | |
| 20260507102620 | 57 | 158 | 1.0 | 3.0 | 0.00 | 0.00 | 0.00 | 62 | |
| 20260507102119 | 57 | 108 | 1.0 | 4.0 | 0.00 | 0.00 | 0.00 | 63 | |
| 20260507101619 | 55 | 110 | 0.0 | 4.0 | 0.00 | 0.00 | 0.00 | 66 | |
| 20260507101119 | 54 | 158 | 2.0 | 5.0 | 0.00 | 0.00 | 0.00 | 67 | |
| 20260507100618 | 55 | 139 | 1.0 | 5.0 | 0.00 | 0.00 | 0.00 | 67 | |
| 20260507100118 | 55 | 156 | 2.0 | 5.0 | 0.00 | 0.00 | 0.00 | 68 | |
| 20260507095617 | 55 | 173 | 1.0 | 3.0 | 0.00 | 0.00 | 0.00 | 69 | |
| 20260507094615 | 54 | 89 | 0.0 | 2.0 | 0.00 | 0.00 | 0.00 | 73 | |
| 20260507094114 | 53 | 0 | 0.0 | 0.0 | 0.00 | 0.00 | 0.00 | 74 | |
| 20260507093614 | 53 | 0 | 0.0 | 0.0 | 0.00 | 0.00 | 0.00 | 74 | |
| 20260507093114 | 53 | 0 | 0.0 | 0.0 | 0.00 | 0.00 | 0.00 | 75 | |
| 20260507092614 | 53 | 0 | 0.0 | 0.0 | 0.00 | 0.00 | 0.00 | 77 | |
| 20260507092113 | 52 | 145 | 0.0 | 0.0 | 0.00 | 0.00 | 0.00 | 78 | |
| 20260507091613 | 52 | 0 | 0.0 | 0.0 | 0.00 | 0.00 | 0.00 | 79 | |
| 20260507091113 | 51 | 97 | 0.0 | 3.0 | 0.00 | 0.00 | 0.00 | 80 | |
| 20260507090612 | 51 | 79 | 0.0 | 2.0 | 0.00 | 0.00 | 0.00 | 81 | |
| 20260507090112 | 49 | 0 | 0.0 | 0.0 | 0.00 | 0.00 | 0.00 | 82 | |
| 20260507085612 | 50 | 0 | 0.0 | 0.0 | 0.00 | 0.00 | 0.00 | 82 | |
| 20260507085112 | 50 | 0 | 0.0 | 0.0 | 0.00 | 0.00 | 0.00 | 83 | |
| 20260507084611 | 50 | 0 | 0.0 | 0.0 | 0.00 | 0.00 | 0.00 | 83 | |
| 20260507084111 | 50 | 0 | 0.0 | 0.0 | 0.00 | 0.00 | 0.00 | 84 | |
| 20260507083611 | 48 | 0 | 0.0 | 0.0 | 0.00 | 0.00 | 0.00 | 84 | |
| 20260507083110 | 48 | 167 | 0.0 | 3.0 | 0.00 | 0.00 | 0.00 | 85 | |
| 20260507082610 | 48 | 150 | 2.0 | 5.0 | 0.00 | 0.00 | 0.00 | 85 | |
| 20260507081610 | 48 | 148 | 1.0 | 4.0 | 0.00 | 0.00 | 0.00 | 86 | |
| 20260507081110 | 48 | 114 | 1.0 | 3.0 | 0.00 | 0.00 | 0.00 | 86 | |
| 20260507080609 | 47 | 160 | 2.0 | 5.0 | 0.00 | 0.00 | 0.00 | 86 | |
| 20260507080109 | 47 | 0 | 0.0 | 0.0 | 0.00 | 0.00 | 0.00 | 87 | |
| 20260507075609 | 47 | 181 | 1.0 | 4.0 | 0.00 | 0.00 | 0.00 | 88 | |
| 20260507075108 | 46 | 136 | 1.0 | 4.0 | 0.00 | 0.00 | 0.00 | 88 | |
| 20260507074608 | 46 | 150 | 2.0 | 4.0 | 0.00 | 0.00 | 0.00 | 88 | |
| 20260507074108 | 46 | 0 | 0.0 | 0.0 | 0.00 | 0.00 | 0.00 | 89 | |
| 20260507073607 | 45 | 0 | 0.0 | 0.0 | 0.00 | 0.00 | 0.00 | 90 | |
| 20260507073107 | 45 | 166 | 1.0 | 3.0 | 0.00 | 0.00 | 0.00 | 90 | |
| 20260507072607 | 46 | 145 | 1.0 | 4.0 | 0.00 | 0.00 | 0.00 | 90 | |
| 20260507072107 | 46 | 152 | 1.0 | 4.0 | 0.00 | 0.00 | 0.00 | 90 | |
| 20260507071606 | 45 | 0 | 0.0 | 0.0 | 0.00 | 0.00 | 0.00 | 91 | |
| 20260507071106 | 45 | 0 | 0.0 | 0.0 | 0.00 | 0.00 | 0.00 | 91 | |
| 20260507070605 | 45 | 103 | 0.0 | 1.0 | 0.00 | 0.00 | 0.00 | 92 | |
| 20260507070105 | 45 | 0 | 0.0 | 0.0 | 0.00 | 0.00 | 0.00 | 92 | |
| 20260507065605 | 45 | 114 | 0.0 | 1.0 | 0.00 | 0.00 | 0.00 | 92 | |
| 20260507065105 | 44 | 0 | 0.0 | 0.0 | 0.00 | 0.00 | 0.00 | 93 | |
| 20260507064604 | 43 | 0 | 0.0 | 0.0 | 0.00 | 0.00 | 0.00 | 93 | |
| 20260507064104 | 44 | 0 | 0.0 | 0.0 | 0.00 | 0.00 | 0.00 | 93 | |
| 20260507063604 | 43 | 113 | 0.0 | 0.0 | 0.00 | 0.00 | 0.00 | 93 | |
| 20260507063104 | 43 | 0 | 0.0 | 0.0 | 0.00 | 0.00 | 0.00 | 93 | |
| 20260507062603 | 43 | 0 | 0.0 | 0.0 | 0.00 | 0.00 | 0.00 | 94 | |
| 20260507062103 | 44 | 113 | 0.0 | 2.0 | 0.00 | 0.00 | 0.00 | 94 | |
| 20260507061603 | 43 | 0 | 0.0 | 0.0 | 0.00 | 0.00 | 0.00 | 94 | |
| 20260507061102 | 43 | 0 | 0.0 | 0.0 | 0.00 | 0.00 | 0.00 | 94 | |
| 20260507060602 | 43 | 128 | 0.0 | 4.0 | 0.00 | 0.00 | 0.00 | 94 | |
| 20260507055601 | 42 | 0 | 0.0 | 0.0 | 0.00 | 0.00 | 0.00 | 94 | |
| 20260507055101 | 42 | 0 | 0.0 | 0.0 | 0.00 | 0.00 | 0.00 | 94 | |
| 20260507054601 | 42 | 0 | 0.0 | 0.0 | 0.00 | 0.00 | 0.00 | 94 | |
| 20260507054101 | 42 | 156 | 1.0 | 4.0 | 0.00 | 0.00 | 0.00 | 94 | |
| 20260507053600 | 42 | 127 | 0.0 | 1.0 | 0.00 | 0.00 | 0.00 | 94 | |
| 20260507053100 | 42 | 149 | 0.0 | 3.0 | 0.00 | 0.00 | 0.00 | 94 | |
| 20260507052600 | 42 | 155 | 1.0 | 6.0 | 0.00 | 0.00 | 0.00 | 94 | |
| 20260507052100 | 42 | 155 | 2.0 | 5.0 | 0.00 | 0.00 | 0.00 | 94 | |
| 20260507051559 | 42 | 177 | 0.0 | 3.0 | 0.00 | 0.00 | 0.00 | 94 | |
| 20260507051058 | 42 | 0 | 0.0 | 0.0 | 0.00 | 0.00 | 0.00 | 93 | |
| 20260507050558 | 41 | 125 | 1.0 | 5.0 | 0.00 | 0.00 | 0.00 | 93 | |
| 20260507050058 | 42 | 143 | 0.0 | 5.0 | 0.00 | 0.00 | 0.00 | 93 | |
| 20260507045558 | 42 | 138 | 0.0 | 4.0 | 0.00 | 0.00 | 0.00 | 93 | |
| 20260507045057 | 41 | 179 | 1.0 | 4.0 | 0.00 | 0.00 | 0.00 | 93 | |
| 20260507044557 | 42 | 138 | 1.0 | 5.0 | 0.00 | 0.00 | 0.00 | 93 | |
| 20260507044057 | 42 | 141 | 1.0 | 3.0 | 0.00 | 0.00 | 0.00 | 92 | |
| 20260507043556 | 42 | 139 | 1.0 | 4.0 | 0.00 | 0.00 | 0.00 | 92 | |
| 20260507043056 | 43 | 132 | 1.0 | 6.0 | 0.00 | 0.00 | 0.00 | 92 | |
| 20260507042556 | 42 | 150 | 2.0 | 6.0 | 0.00 | 0.00 | 0.00 | 92 | |
| 20260507042056 | 42 | 176 | 0.0 | 3.0 | 0.00 | 0.00 | 0.00 | 92 | |
| 20260507041555 | 42 | 0 | 0.0 | 0.0 | 0.00 | 0.00 | 0.00 | 92 | |
| 20260507041055 | 43 | 131 | 0.0 | 0.0 | 0.00 | 0.00 | 0.00 | 92 | |
| 20260507040054 | 43 | 163 | 0.0 | 3.0 | 0.00 | 0.00 | 0.00 | 92 | |
| 20260507035054 | 42 | 129 | 0.0 | 3.0 | 0.00 | 0.00 | 0.00 | 91 | |
| 20260507034554 | 42 | 156 | 0.0 | 4.0 | 0.00 | 0.00 | 0.00 | 91 | |
| 20260507034053 | 42 | 0 | 0.0 | 0.0 | 0.00 | 0.00 | 0.00 | 91 | |
| 20260507033553 | 42 | 0 | 0.0 | 0.0 | 0.00 | 0.00 | 0.00 | 91 | |
| 20260507033053 | 42 | 0 | 0.0 | 0.0 | 0.00 | 0.00 | 0.00 | 91 | |
| 20260507032553 | 42 | 170 | 0.0 | 4.0 | 0.00 | 0.00 | 0.00 | 91 | |
| 20260507032052 | 43 | 146 | 0.0 | 4.0 | 0.00 | 0.00 | 0.00 | 91 | |
| 20260507031050 | 43 | 141 | 2.0 | 6.0 | 0.00 | 0.00 | 0.00 | 90 | |
| 20260507030549 | 43 | 143 | 2.0 | 5.0 | 0.00 | 0.00 | 0.00 | 90 | |
| 20260507025049 | 43 | 142 | 1.0 | 4.0 | 0.00 | 0.00 | 0.00 | 90 | |
| 20260507024548 | 43 | 152 | 0.0 | 4.0 | 0.00 | 0.00 | 0.00 | 90 | |
| 20260507024048 | 43 | 145 | 0.0 | 4.0 | 0.00 | 0.00 | 0.00 | 90 | |
| 20260507023548 | 43 | 118 | 0.0 | 4.0 | 0.00 | 0.00 | 0.00 | 90 | |
| 20260507023047 | 43 | 152 | 2.0 | 5.0 | 0.00 | 0.00 | 0.00 | 90 | |
| 20260507022547 | 43 | 148 | 3.0 | 6.0 | 0.00 | 0.00 | 0.00 | 90 | |
| 20260507022047 | 44 | 160 | 3.0 | 6.0 | 0.00 | 0.00 | 0.00 | 90 | |
| 20260507021547 | 43 | 142 | 4.0 | 7.0 | 0.00 | 0.00 | 0.00 | 90 | |
| 20260507021046 | 44 | 165 | 3.0 | 6.0 | 0.00 | 0.00 | 0.00 | 89 | |
| 20260507020546 | 43 | 139 | 1.0 | 5.0 | 0.00 | 0.00 | 0.00 | 88 | |
| 20260507020046 | 44 | 141 | 2.0 | 5.0 | 0.00 | 0.00 | 0.00 | 88 | |
| 20260507015546 | 43 | 148 | 1.0 | 6.0 | 0.00 | 0.00 | 0.00 | 88 | |
| 20260507015045 | 43 | 152 | 1.0 | 4.0 | 0.00 | 0.00 | 0.00 | 87 | |
| 20260507014545 | 43 | 141 | 0.0 | 4.0 | 0.00 | 0.00 | 0.00 | 87 | |
| 20260507014045 | 44 | 96 | 1.0 | 3.0 | 0.00 | 0.00 | 0.00 | 87 | |
| 20260507013544 | 44 | 0 | 0.0 | 0.0 | 0.00 | 0.00 | 0.00 | 86 | |
| 20260507013044 | 44 | 129 | 0.0 | 4.0 | 0.00 | 0.00 | 0.00 | 86 | |
| 20260507012544 | 44 | 146 | 1.0 | 4.0 | 0.00 | 0.00 | 0.00 | 86 | |
| 20260507012044 | 44 | 156 | 1.0 | 6.0 | 0.00 | 0.00 | 0.00 | 86 | |
| 20260507011543 | 45 | 0 | 0.0 | 0.0 | 0.00 | 0.00 | 0.00 | 86 | |
| 20260507011043 | 45 | 0 | 0.0 | 0.0 | 0.00 | 0.00 | 0.00 | 85 | |
| 20260507010543 | 45 | 0 | 0.0 | 0.0 | 0.00 | 0.00 | 0.00 | 85 | |
| 20260507010042 | 44 | 0 | 0.0 | 0.0 | 0.00 | 0.00 | 0.00 | 85 | |
| 20260507005042 | 44 | 0 | 0.0 | 0.0 | 0.00 | 0.00 | 0.00 | 84 | |
| 20260507004542 | 45 | 0 | 0.0 | 0.0 | 0.00 | 0.00 | 0.00 | 84 | |
| 20260507004041 | 45 | 0 | 0.0 | 0.0 | 0.00 | 0.00 | 0.00 | 84 | |
| 20260507003541 | 45 | 0 | 0.0 | 0.0 | 0.00 | 0.00 | 0.00 | 84 | |
| 20260507003041 | 45 | 0 | 0.0 | 0.0 | 0.00 | 0.00 | 0.00 | 84 | |
| 20260507002541 | 45 | 159 | 1.0 | 3.0 | 0.00 | 0.00 | 0.00 | 83 | |
| 20260507002040 | 45 | 124 | 0.0 | 3.0 | 0.00 | 0.00 | 0.00 | 83 | |
| 20260507001540 | 45 | 0 | 0.0 | 0.0 | 0.00 | 0.00 | 0.00 | 83 | |
| 20260507000539 | 45 | 166 | 1.0 | 4.0 | 0.00 | 0.00 | 0.00 | 83 | |
| 20260507000039 | 45 | 132 | 1.0 | 6.0 | 0.00 | 0.00 | 0.00 | 83 | |
| 20260506235539 | 45 | 146 | 1.0 | 5.0 | 0.00 | 0.00 | 0.00 | 82 | |
| 20260506235039 | 45 | 148 | 2.0 | 5.0 | 0.00 | 0.00 | 0.00 | 82 |